Theta_e
316 315 314 313 312 311 309 308 308 306 309 302 299 300 294 290 288 303 305 305 305 298 289 291 290 287 288 290 291 293 292 290 291 289 290 290 289 286 288 285 283 282 281 280 277 278 277 278 278 277 278 277 277 278 278 278 278 276 275 275 277 282 264 259 271 274 274 274 275 277 277 277 275 274 275 273 272 273 271 269 271 267 269 265 266 264 269
315 314 313 313 312 310 309 308 308 307 308 302 301 296 294 295 297 299 305 302 300 293 285 284 286 288 289 290 290 292 292 289 288 288 287 287 286 286 284 284 284 281 280 279 279 279 273 277 276 276 277 276 279 277 276 278 277 276 274 271 275 265 270 270 264 264 268 270 272 272 273 274 272 272 273 275 275 274 274 273 271 265 268 269 266 261 266
314 313 312 312 311 310 309 308 307 306 307 305 299 291 295 294 294 296 298 300 298 290 289 286 284 287 287 287 285 287 289 290 290 289 287 286 284 284 283 284 282 280 280 278 279 279 277 273 278 275 277 276 279 275 276 278 276 279 282 285 280 272 271 264 260 260 259 260 261 263 266 270 273 274 274 275 274 273 270 264 266 263 269 270 266 265 272
314 313 312 311 310 309 308 307 306 306 306 306 299 297 291 288 282 293 289 296 294 292 290 289 286 286 285 284 285 287 286 287 286 288 286 285 284 283 284 281 279 278 279 278 278 278 278 278 275 275 275 277 277 278 276 276 278 282 285 282 278 266 274 272 270 266 263 267 269 274 276 272 269 271 273 273 274 274 272 270 267 265 267 267 269 270 271
314 313 311 311 309 309 308 307 306 305 306 305 299 296 293 292 284 287 284 293 292 287 289 287 288 284 287 282 285 283 285 285 285 289 285 286 283 282 281 280 280 278 278 277 275 276 275 276 275 275 275 277 276 278 276 276 279 285 283 282 274 271 267 272 272 272 272 273 272 274 275 271 272 271 271 273 273 272 269 267 265 271 267 262 272 273 269
315 313 311 310 309 308 307 306 305 305 306 306 299 292 292 285 288 291 293 288 284 285 287 289 288 287 286 284 286 283 283 284 282 286 285 283 283 281 280 278 279 279 278 277 272 275 274 275 273 274 275 274 276 275 277 275 281 282 277 282 276 272 265 270 273 271 273 273 273 274 273 273 273 272 272 271 272 271 268 268 271 271 266 265 270 271 269
315 313 311 310 309 308 307 306 305 305 305 304 297 290 293 290 287 290 294 288 288 288 288 289 288 287 287 285 286 283 283 283 285 284 283 283 280 281 277 278 278 278 278 278 275 275 271 269 273 271 270 274 273 271 274 277 277 277 276 277 277 271 266 270 273 271 273 273 273 274 272 272 272 272 272 273 272 271 271 271 272 271 269 271 271 271 271
314 312 311 310 309 308 307 306 304 304 304 302 295 294 288 285 285 284 290 288 285 286 287 288 288 284 288 283 285 285 285 283 284 283 283 279 280 281 279 278 277 278 278 278 276 276 277 274 272 275 271 267 273 269 272 270 275 275 274 276 274 272 265 276 272 268 268 272 273 273 272 271 270 271 272 272 272 272 272 272 272 272 270 272 271 270 270
313 311 310 310 308 308 307 305 303 303 305 295 294 293 295 292 293 292 287 284 285 285 285 285 285 283 285 283 285 286 285 284 286 284 285 283 281 280 280 280 278 278 277 277 278 278 277 277 277 277 275 270 275 268 268 276 271 274 272 274 272 276 266 273 269 265 266 271 271 271 272 271 270 269 270 270 270 268 270 269 271 270 268 270 270 267 268
312 311 310 309 308 307 306 305 304 304 304 295 295 290 294 292 293 293 290 284 289 283 286 284 284 281 285 286 286 286 285 286 287 283 284 279 283 283 281 279 278 276 276 276 278 279 277 278 278 278 278 278 278 278 277 277 275 270 272 276 271 272 268 264 263 265 266 271 271 270 269 268 263 264 270 272 271 272 272 273 273 273 273 269 266 267 273
311 311 309 309 308 307 306 305 304 303 300 293 293 291 292 290 288 289 290 283 285 284 285 283 283 285 286 288 286 285 284 286 286 282 281 281 281 282 281 279 278 276 276 278 281 280 280 279 278 278 278 278 277 277 278 278 278 276 273 269 268 271 271 264 272 266 266 270 269 269 265 258 261 272 274 273 270 271 269 270 272 273 273 272 273 273 275
311 310 310 309 308 307 306 305 304 303 300 297 297 293 294 295 293 290 285 282 283 285 284 282 284 285 285 288 287 284 283 283 285 287 283 280 280 280 280 279 278 271 279 281 282 280 280 280 279 278 278 277 277 277 277 276 276 280 278 274 270 271 270 266 270 263 263 265 266 263 258 260 270 274 275 275 274 273 272 272 273 273 274 274 273 274 274
311 310 309 308 308 307 306 305 304 303 301 297 297 291 295 296 292 289 286 285 282 283 281 282 286 286 286 285 285 285 285 285 284 283 282 280 280 280 281 279 278 278 282 280 280 279 277 275 276 277 276 277 277 277 276 275 275 277 277 278 274 269 268 265 265 264 263 265 261 258 259 269 273 274 275 276 275 274 272 271 274 274 274 274 273 274 275
311 309 309 308 307 307 306 305 304 303 301 299 295 294 294 295 291 288 286 283 282 284 284 282 283 283 283 283 284 282 282 281 281 283 280 283 280 280 281 282 282 283 282 282 279 278 274 276 269 272 271 273 270 268 272 275 276 276 276 277 278 275 272 268 263 271 262 260 260 263 269 269 271 271 271 272 270 270 269 265 270 274 275 274 274 275 276
310 309 308 307 307 306 306 305 304 302 301 300 295 295 294 295 294 291 290 286 282 284 284 279 282 282 283 282 282 280 280 280 280 280 281 282 280 283 282 283 283 283 282 280 277 279 274 270 265 265 266 263 261 261 273 268 275 277 277 277 277 277 270 270 265 261 267 260 260 263 261 258 263 272 275 275 275 274 274 271 268 275 275 276 275 275 276
309 308 308 307 306 306 305 305 304 302 301 300 295 294 295 296 295 294 290 285 284 277 281 285 286 284 282 282 283 281 279 279 279 278 278 279 279 280 281 281 283 283 282 280 279 276 274 268 266 265 263 261 268 267 263 271 269 275 276 276 276 277 276 273 269 264 262 261 261 260 258 261 271 272 274 276 275 275 274 269 266 273 275 276 276 276 276
308 307 307 306 306 305 305 304 303 302 301 300 294 294 293 297 294 292 288 285 285 280 284 286 286 285 281 280 282 281 282 279 279 276 276 277 278 280 280 283 282 283 281 278 278 273 268 265 271 268 268 271 263 265 269 269 266 268 273 272 271 270 269 267 263 261 260 260 260 259 259 260 267 272 274 275 274 276 272 262 263 274 276 277 277 276 275
307 307 307 306 306 305 304 304 303 302 301 300 295 293 292 297 296 295 290 286 283 282 282 285 284 281 281 282 280 282 282 281 280 280 278 279 279 279 279 281 278 282 282 276 278 271 268 265 265 266 263 273 270 272 262 267 262 265 266 269 266 264 263 263 263 263 265 267 262 264 265 273 275 275 276 275 275 274 265 260 268 276 277 278 277 275 273
307 307 306 306 305 305 304 304 303 303 302 300 296 294 294 296 296 295 289 285 284 280 285 285 287 285 285 286 284 283 283 283 281 277 276 276 279 281 281 281 282 273 280 274 278 271 268 267 275 271 263 266 272 263 271 265 265 270 271 267 266 267 266 266 268 262 261 262 261 263 266 273 275 275 275 275 272 263 263 273 278 278 277 278 276 273 272
307 306 306 306 305 304 304 303 303 302 302 301 297 290 293 296 296 295 290 284 285 281 284 283 285 283 286 283 281 280 281 282 281 279 278 275 281 281 279 274 280 277 274 278 270 276 268 265 270 271 265 268 271 274 266 270 274 268 269 273 268 267 264 261 261 266 268 268 264 263 259 267 275 274 274 276 269 270 277 278 278 279 277 275 272 271 270
307 306 306 306 305 304 304 303 302 302 302 301 298 292 290 295 295 296 294 290 284 280 282 288 286 286 286 285 286 286 284 281 281 279 281 279 282 280 271 272 277 275 273 276 269 272 271 265 273 268 271 272 270 271 264 265 270 275 273 271 271 274 263 265 269 272 260 261 260 260 268 272 276 276 271 274 276 278 278 278 275 276 275 272 270 269 269
306 306 306 305 304 303 303 302 302 302 302 300 298 293 287 293 295 295 294 293 286 282 284 288 288 287 289 289 289 289 287 287 287 287 282 279 282 280 278 280 279 276 275 276 272 271 272 266 269 265 264 267 271 268 270 265 263 270 273 273 262 275 271 272 266 271 270 263 267 274 276 276 278 278 277 277 278 279 277 274 274 272 271 271 268 268 268
306 306 305 304 304 303 302 302 302 302 301 301 297 292 288 292 292 296 293 287 289 289 290 288 289 290 292 291 291 290 289 290 288 287 287 282 279 281 278 279 279 281 278 280 276 276 274 270 268 272 267 273 269 266 271 272 265 270 267 275 274 275 276 276 274 273 276 277 277 278 278 277 277 277 278 277 278 277 274 273 271 271 270 269 267 267 267
305 305 304 304 303 303 302 302 301 301 301 301 298 292 291 293 294 293 291 289 284 281 284 287 284 281 283 284 289 290 290 289 289 288 289 288 279 279 283 282 283 281 280 280 282 277 272 271 271 272 268 274 274 269 267 264 270 273 271 271 275 276 276 276 273 275 271 267 275 275 276 276 276 277 278 277 275 273 273 272 270 269 268 267 267 267 266
304 304 304 304 303 303 302 301 301 301 301 301 298 297 296 293 294 292 287 282 283 280 274 281 284 286 289 291 291 289 290 291 291 289 288 288 286 282 280 283 285 282 280 282 281 278 274 271 271 274 270 276 277 267 275 271 269 277 268 272 274 271 277 273 274 273 271 271 275 276 277 277 277 277 276 274 272 271 272 270 269 268 267 267 267 266 265
304 304 304 303 302 302 301 301 301 301 301 301 298 294 292 291 294 293 292 290 286 284 276 276 282 290 290 288 287 289 291 290 289 289 289 289 288 287 285 285 283 284 283 282 281 279 272 272 274 273 273 271 281 274 273 276 273 276 274 272 276 276 277 270 273 272 274 276 277 277 275 275 276 276 273 271 271 270 269 268 266 266 265 265 266 266 264
303 303 303 302 302 301 301 301 301 301 301 301 297 296 294 294 295 292 289 288 283 278 282 277 283 285 288 285 289 289 290 290 289 288 288 288 288 287 286 284 283 282 282 281 282 279 276 275 277 274 277 275 279 275 276 271 274 271 271 276 278 276 273 276 274 270 270 271 273 274 269 269 275 277 272 269 270 268 267 266 265 265 264 264 263 263 264
302 302 302 302 301 301 301 301 301 301 300 300 298 297 296 294 295 294 294 292 286 278 281 281 282 283 288 283 289 289 290 290 289 288 287 287 287 286 285 284 283 281 280 279 275 278 276 275 274 280 280 278 276 273 278 278 278 275 275 275 278 274 275 274 272 271 270 275 275 274 274 273 275 274 271 270 269 266 264 264 263 264 264 264 262 261 261
302 302 302 301 301 301 301 301 301 301 301 300 297 295 295 296 296 296 295 295 291 284 283 283 283 282 279 283 289 287 288 289 288 287 286 286 286 285 285 284 283 282 281 281 280 280 279 278 281 278 277 281 277 273 275 270 271 270 274 278 278 279 278 277 277 276 276 278 274 272 271 272 274 272 269 269 267 264 263 264 264 264 263 262 261 261 260
302 302 302 302 302 302 302 302 301 301 301 297 293 288 286 288 296 295 297 295 293 288 283 280 277 280 285 283 284 286 286 288 287 287 286 285 285 285 285 284 283 285 282 281 281 276 280 279 280 282 282 283 275 271 270 269 268 272 277 277 278 277 277 278 278 276 275 273 268 270 269 269 269 269 268 269 265 264 262 262 262 262 262 262 260 260 260
302 302 302 302 301 301 301 301 301 301 300 294 290 283 283 280 289 297 298 296 295 289 284 285 279 285 280 285 285 284 285 286 285 285 285 285 285 285 285 285 284 285 280 281 281 280 281 277 279 279 282 282 281 272 269 269 268 271 276 277 277 277 277 277 278 275 273 269 267 265 264 266 267 267 267 265 264 263 262 262 263 263 262 260 260 260 260
302 301 302 301 301 302 301 302 301 302 298 292 287 285 286 287 293 297 298 295 293 287 284 280 280 280 278 283 284 286 286 286 286 285 284 286 282 285 283 285 281 286 284 280 281 281 279 280 279 278 278 282 282 272 274 273 271 272 277 277 277 278 278 277 274 270 267 267 267 269 271 268 265 266 266 265 263 263 262 262 262 261 261 260 260 260 260
301 301 301 302 301 301 302 302 302 300 295 295 297 298 297 298 299 299 297 294 290 285 286 282 276 280 277 277 282 282 286 284 283 283 280 285 280 283 280 284 283 282 287 282 277 277 280 280 280 277 279 282 278 276 274 273 274 278 279 279 278 275 273 270 269 268 266 266 267 269 271 268 264 263 263 263 263 262 262 261 261 260 259 257 257 258 259
301 302 301 301 301 301 301 301 301 301 299 295 288 290 294 299 299 298 295 293 287 285 285 280 277 277 274 283 275 282 287 280 279 282 275 283 281 281 279 281 282 278 280 280 280 280 280 281 276 277 279 277 279 272 270 274 278 278 279 278 275 269 269 267 268 267 266 265 265 265 264 263 263 263 262 262 262 262 262 261 259 257 256 256 257 258 258
301 301 301 301 301 301 300 299 296 294 289 290 290 292 295 300 299 297 294 290 283 282 283 282 281 274 275 274 272 277 286 281 278 282 277 279 284 279 280 273 278 277 276 283 276 279 277 277 280 274 271 277 273 270 273 275 277 278 278 278 273 268 265 266 267 267 265 264 263 263 263 262 261 260 261 261 261 261 260 258 258 257 256 256 257 257 257
301 300 300 301 300 299 298 296 294 291 287 286 287 295 299 300 299 295 293 288 285 282 282 280 282 275 277 271 271 278 286 279 282 281 279 279 276 280 279 275 269 277 280 279 271 277 274 279 273 268 274 271 271 274 275 277 277 277 277 276 274 272 271 272 269 264 263 262 260 261 260 260 260 260 260 260 260 259 259 258 257 257 256 255 256 256 256
301 300 301 300 297 293 288 287 293 292 288 293 295 299 300 298 295 294 291 288 288 290 280 280 279 278 280 276 279 280 283 272 282 276 277 275 274 276 274 270 269 275 271 265 266 269 275 281 271 268 267 268 272 278 278 278 277 276 277 277 273 270 266 263 263 262 260 258 257 259 259 259 258 258 259 259 259 259 258 256 256 255 254 254 254 255 255
300 299 296 291 287 284 284 285 287 294 299 298 298 293 290 289 282 285 285 283 285 288 281 282 278 280 281 278 273 282 280 275 281 273 273 276 274 269 272 271 270 277 266 267 269 277 272 271 270 270 271 275 276 277 277 277 278 275 272 269 267 266 265 263 261 260 257 258 259 257 257 258 257 258 258 257 259 257 257 257 256 256 256 255 255 255 255
297 294 288 286 285 283 284 285 297 299 295 293 289 285 282 285 283 280 280 283 284 280 284 282 279 282 279 278 278 284 279 276 275 275 270 279 273 266 272 267 274 275 263 266 268 278 264 263 260 264 269 272 273 276 278 276 271 268 268 267 266 264 263 262 262 263 265 267 265 260 260 259 259 258 259 258 259 259 258 256 255 255 254 254 254 254 254
289 285 285 285 284 285 291 296 297 292 290 284 284 282 277 283 280 273 285 277 275 278 283 277 283 282 283 279 277 277 286 278 273 273 274 273 283 270 273 269 270 270 262 265 269 273 262 259 256 258 264 269 273 277 272 270 269 267 265 264 263 263 263 262 262 262 262 260 259 259 260 260 260 259 258 258 258 256 254 254 254 254 253 253 254 254 253
287 286 285 284 286 288 291 292 288 286 284 281 280 279 278 275 279 278 280 275 275 273 282 280 282 280 283 282 281 276 284 283 278 277 276 272 279 275 268 269 275 265 263 262 270 266 264 259 256 259 268 274 275 271 267 267 267 263 262 261 262 261 262 261 261 261 260 259 258 258 258 257 257 257 257 257 256 254 254 253 252 252 252 252 252 253 253
288 287 288 289 288 288 287 285 284 282 281 283 276 272 277 275 278 273 276 274 275 276 276 281 277 279 279 281 280 281 278 281 277 277 274 269 278 270 266 267 271 268 263 270 262 259 261 259 257 262 271 275 269 264 265 265 263 261 260 259 260 259 260 259 259 259 259 257 256 256 256 255 255 255 256 255 255 254 253 252 252 252 251 252 253 253 252
294 291 290 285 285 283 285 279 282 281 274 276 273 268 275 272 274 274 274 278 277 274 275 282 281 285 284 284 278 280 278 283 277 275 273 270 278 272 267 269 269 265 268 263 261 262 260 260 257 269 275 273 263 263 264 264 263 261 259 259 259 259 259 259 258 257 256 257 254 254 255 254 252 252 253 253 252 250 249 251 251 249 249 251 251 252 252
290 288 285 283 281 280 283 270 282 274 270 275 273 268 273 270 271 273 267 271 274 273 278 277 279 280 275 283 278 277 277 279 281 271 270 274 270 268 270 265 268 270 265 260 259 259 264 260 268 273 276 266 261 261 261 260 258 258 257 258 258 258 258 258 257 256 255 255 254 254 252 251 251 251 251 251 251 248 248 248 250 252 252 252 251 250 251
284 281 282 281 277 279 280 269 283 275 269 273 278 273 275 271 274 274 271 274 276 275 279 280 281 280 277 275 275 275 280 272 279 272 269 273 267 270 267 265 268 266 265 261 257 255 257 264 271 271 272 269 264 261 260 259 258 258 257 256 256 256 257 256 256 255 255 254 254 254 255 254 253 250 251 251 250 249 248 248 250 251 251 251 250 249 249
282 279 280 274 271 278 276 270 276 268 273 278 275 276 275 274 276 274 274 272 273 278 277 279 279 279 275 275 276 275 274 272 272 272 272 271 268 267 269 265 266 264 264 260 258 263 267 271 274 275 275 272 265 261 259 258 257 256 256 255 255 255 255 255 255 254 254 253 253 255 254 254 254 253 251 251 250 248 248 249 251 251 251 250 249 248 248
282 283 278 277 274 276 277 269 274 274 276 275 276 278 277 277 278 279 275 277 278 280 280 280 279 278 276 271 270 270 270 273 272 273 273 266 268 269 273 266 265 266 263 262 264 263 266 272 274 276 267 264 261 259 258 256 255 255 256 255 255 255 255 254 253 253 253 253 254 254 254 253 253 252 250 249 248 249 250 252 252 252 251 249 250 250 248
277 281 280 271 270 276 273 273 275 270 270 273 278 280 279 277 276 273 272 277 280 280 278 277 274 272 271 273 274 272 272 269 268 270 272 268 272 265 266 266 265 266 264 262 266 271 272 274 275 269 265 263 260 258 256 255 254 255 254 254 254 254 254 254 253 254 254 252 251 253 252 250 249 250 250 250 250 251 251 252 251 251 251 251 250 250 249
283 281 275 273 276 274 275 276 275 276 274 271 277 279 277 277 277 277 276 278 280 279 281 278 274 274 268 273 271 272 269 272 266 268 271 267 266 264 266 262 264 263 264 267 270 273 275 273 263 260 260 259 258 258 258 256 255 255 254 254 254 254 254 253 252 251 250 250 250 250 250 250 250 250 251 251 252 252 252 252 251 251 251 249 249 250 249
279 276 277 271 271 268 268 274 277 273 270 271 274 276 278 278 277 275 277 278 279 278 277 279 278 273 269 270 266 271 269 272 269 271 268 266 267 266 265 258 263 265 268 273 272 274 264 256 258 259 258 257 257 257 256 255 256 255 255 255 254 254 252 251 250 248 249 250 249 250 251 252 252 252 252 253 254 253 252 252 252 251 251 250 250 250 249
282 278 275 278 276 273 275 271 273 271 271 272 274 275 277 277 279 275 278 278 278 276 271 270 272 268 268 268 268 266 268 272 268 269 269 268 268 263 265 266 269 272 273 265 264 264 261 260 261 259 256 256 256 256 255 255 254 253 253 252 252 251 248 249 252 251 250 250 252 254 253 253 254 254 254 255 254 253 253 253 252 251 249 249 250 249 248
277 271 272 275 274 276 276 276 278 276 276 276 277 277 279 277 279 275 279 279 277 274 271 269 269 268 268 266 270 270 270 267 266 269 266 269 266 262 262 270 273 273 268 264 262 256 255 255 256 257 256 256 255 254 253 253 252 251 251 250 250 250 249 250 253 251 252 253 254 254 253 254 254 255 255 255 254 253 252 252 252 250 250 249 248 248 248
Wind_Speed
21 19 20 20 21 20 19 18 16 14 16 5 3 2 2 3 4 2 4 3 1 2 4 0 1 3 3 2 1 2 1 3 2 1 1 1 2 0 1 3 2 3 3 0 1 3 1 5 3 2 2 1 1 5 3 5 3 3 2 1 1 5 1 3 8 9 6 4 2 7 6 8 9 4 4 2 7 6 10 9 11 13 12 8 9 13 15
22 21 21 21 21 22 20 19 18 17 16 6 5 2 2 2 2 2 1 3 2 3 9 5 7 6 2 1 2 1 2 2 0 2 2 3 0 2 1 2 2 1 1 1 4 3 1 1 4 1 2 3 5 3 3 3 1 2 3 3 4 2 5 4 9 9 7 2 2 1 1 5 3 1 2 6 10 10 10 10 5 6 6 14 12 18 14
23 22 22 22 22 23 21 20 20 18 17 8 6 5 4 3 1 3 3 3 2 5 2 5 3 5 4 1 3 1 1 4 2 3 2 1 2 2 1 1 2 1 1 1 1 1 2 0 0 4 1 4 2 7 4 5 1 3 2 1 1 0 3 3 2 9 12 15 14 14 14 13 8 4 12 15 15 17 11 8 7 10 9 14 11 15 15
23 22 21 22 22 23 22 22 20 19 17 12 3 4 3 2 3 2 3 1 1 2 1 1 3 3 2 2 3 4 3 0 2 5 2 5 1 1 2 0 2 2 1 1 1 0 1 3 2 2 1 3 2 4 7 3 2 3 6 5 4 1 0 1 6 7 10 11 9 8 10 10 9 9 9 18 16 15 8 8 8 12 14 11 16 18 24
25 24 21 22 23 23 23 21 20 19 17 14 7 0 2 0 4 4 3 2 5 3 1 2 1 4 3 2 2 6 6 2 1 6 2 2 5 1 2 3 3 3 3 3 1 1 1 1 4 3 3 2 2 5 6 4 3 7 5 4 3 1 0 8 10 13 13 9 12 13 9 12 10 8 13 17 19 16 11 9 14 14 13 17 11 19 20
27 24 23 24 24 24 24 22 21 19 16 15 5 4 2 4 4 4 3 6 5 4 8 7 5 0 3 4 2 3 3 3 4 1 1 2 0 4 1 2 2 5 8 5 3 3 2 3 3 1 1 2 1 1 2 2 1 4 1 1 2 5 4 9 10 12 8 7 11 10 11 8 8 8 14 19 19 15 13 15 17 14 8 16 23 20 22
27 25 26 26 26 26 26 24 22 20 18 12 8 7 3 2 1 1 1 4 3 7 2 9 9 8 7 3 4 6 7 8 5 3 2 1 2 4 5 5 6 6 5 5 4 5 1 3 1 3 2 2 3 1 2 1 2 3 1 1 2 3 5 5 6 9 8 8 11 9 10 9 8 13 18 18 18 18 17 17 17 15 14 20 22 21 21
28 26 26 27 28 28 27 25 24 21 19 10 7 7 8 8 8 4 2 4 2 3 4 6 8 9 9 6 10 7 9 9 1 1 4 2 3 0 4 3 6 6 6 6 6 7 6 7 4 4 6 1 2 1 4 2 1 2 0 0 3 6 7 3 3 4 8 7 8 8 6 7 9 18 20 16 16 15 14 11 13 14 14 20 23 20 20
28 25 27 30 30 30 28 26 26 24 19 8 10 4 3 1 1 7 9 4 3 3 3 5 7 5 7 10 7 6 11 11 8 4 2 7 6 5 11 7 6 2 4 4 5 3 5 5 6 9 7 5 5 7 4 5 2 1 1 1 3 0 4 2 1 4 8 6 6 8 10 9 14 19 17 10 8 6 7 10 10 12 20 24 21 15 16
27 28 28 30 31 31 32 28 28 26 17 7 6 6 2 5 3 4 7 4 8 8 4 4 5 11 10 9 8 7 9 4 6 4 2 1 2 4 6 8 8 1 5 8 7 5 5 5 4 7 3 3 3 2 4 6 5 1 2 2 3 2 1 1 2 4 10 11 9 10 11 9 5 3 1 3 9 11 14 16 15 13 17 19 15 16 15
28 30 31 34 35 32 32 29 28 28 16 12 11 5 8 10 8 4 4 5 4 10 8 9 13 4 7 10 7 0 3 6 8 11 3 2 3 2 9 10 7 4 8 6 4 7 6 5 3 3 4 5 5 4 4 5 5 7 6 1 1 3 3 1 2 2 6 15 11 8 7 7 7 2 3 7 11 14 15 17 17 16 13 13 16 18 21
29 31 34 38 34 33 33 32 29 29 16 7 4 5 5 7 8 6 6 11 9 8 11 12 14 3 7 8 9 7 5 8 10 8 8 2 1 1 5 4 4 2 1 2 6 5 6 4 5 2 1 2 3 4 6 8 8 7 7 7 3 2 2 1 3 2 6 6 8 9 6 9 4 10 14 12 13 15 18 21 18 13 17 18 19 21 22
29 32 37 33 33 35 33 32 30 27 17 8 7 10 6 10 9 7 5 8 8 12 12 9 7 8 5 6 4 3 6 4 1 2 3 8 3 1 2 3 3 2 5 6 6 6 3 2 1 2 3 1 2 3 5 7 9 7 8 7 6 4 4 2 1 2 4 6 1 3 8 1 12 18 18 14 8 11 10 14 14 15 16 18 20 20 21
30 34 33 32 33 32 32 31 29 25 20 11 9 7 6 11 11 9 8 6 6 7 9 1 4 10 10 8 7 5 7 4 2 3 5 1 8 7 2 2 2 7 6 7 5 3 3 2 1 3 2 1 3 1 2 5 9 6 8 9 8 9 1 2 2 4 4 3 4 10 10 16 14 10 4 0 5 7 6 14 16 15 15 15 16 21 22
30 32 33 34 32 32 31 30 27 26 23 13 8 6 7 6 7 8 3 4 6 4 10 14 12 12 9 6 10 8 5 7 7 1 1 1 3 2 4 1 3 6 3 5 1 1 3 3 1 1 4 2 1 3 1 1 2 9 8 7 8 7 9 5 3 5 3 3 7 7 4 6 7 6 9 5 4 4 5 6 19 12 11 9 16 20 22
31 32 33 34 31 30 30 28 28 27 23 18 9 6 6 5 5 6 6 6 7 5 12 8 7 10 10 8 14 14 8 7 6 4 4 1 2 2 2 2 1 3 3 3 2 4 2 4 3 2 5 4 3 2 4 3 3 1 5 4 4 5 5 7 6 4 3 3 5 5 4 8 6 10 7 10 4 5 6 7 17 7 10 19 17 23 22
34 34 33 32 33 32 30 30 29 27 26 22 11 9 7 7 7 8 7 3 7 7 2 13 9 7 5 5 7 8 8 6 8 6 4 6 5 3 3 1 0 3 3 4 1 3 1 1 2 4 3 5 4 5 1 1 4 1 2 3 1 4 3 3 4 5 4 3 3 8 3 4 6 10 13 9 4 6 5 13 12 12 19 19 22 23 24
35 34 33 33 31 31 32 31 29 27 26 22 12 9 7 6 6 8 4 5 8 5 3 6 11 9 10 7 8 2 5 4 3 2 5 3 6 4 4 3 2 2 5 5 2 3 2 3 6 4 4 3 6 1 4 3 3 6 6 6 3 2 4 4 10 7 8 10 7 5 7 5 6 11 12 6 3 4 10 12 16 16 16 18 18 20 17
32 32 31 31 31 31 30 30 30 27 25 23 11 8 6 7 7 8 5 3 5 7 4 2 1 5 1 3 3 3 2 9 9 7 5 5 3 5 6 1 3 2 2 7 1 5 6 5 1 4 4 5 2 6 2 2 4 0 6 4 3 4 3 5 3 5 7 5 6 10 9 12 12 11 5 4 3 7 11 12 12 16 18 17 18 17 17
31 31 31 30 30 30 28 28 27 25 26 24 14 7 5 8 6 8 8 6 3 3 3 6 3 8 3 8 6 5 2 3 5 7 8 6 4 14 5 2 3 5 1 4 2 3 5 6 4 1 1 4 3 4 1 3 3 7 3 4 6 7 3 5 3 3 1 3 4 6 8 3 4 3 7 5 5 8 11 14 12 12 16 14 17 15 16
27 28 28 28 28 28 26 26 25 26 25 24 15 9 8 5 5 2 3 5 6 5 4 2 1 3 3 3 6 14 14 12 8 7 5 5 10 9 8 7 9 6 7 6 9 7 5 4 4 2 3 6 4 3 5 2 4 4 9 6 3 3 2 4 3 3 4 3 4 7 9 5 4 8 10 7 8 9 10 9 11 10 12 12 13 16 16
28 28 26 27 28 26 25 24 25 23 23 21 15 8 7 6 7 4 5 6 4 3 2 2 1 2 2 1 2 1 1 7 12 10 9 7 7 7 2 5 8 5 3 4 1 0 0 3 1 2 3 2 0 6 3 2 4 2 1 6 2 6 8 6 6 5 4 6 7 7 11 10 9 8 10 10 8 7 5 7 7 9 9 7 10 17 21
27 24 25 28 26 25 25 24 24 24 22 22 13 6 7 8 7 6 7 5 2 3 1 2 1 0 1 4 3 3 1 1 3 2 8 12 6 1 4 4 5 2 2 1 7 3 4 5 5 4 1 3 8 3 5 5 3 2 4 6 6 3 5 4 3 12 7 11 14 14 14 11 9 7 7 8 6 4 9 10 10 6 8 9 11 17 19
26 27 28 26 27 27 27 26 25 24 21 22 12 8 8 9 9 8 6 4 3 3 3 2 3 3 8 10 2 2 1 1 2 1 1 7 10 1 1 2 2 2 1 3 3 6 3 3 5 2 3 4 6 3 5 5 8 4 2 4 3 4 4 4 9 8 4 9 2 7 10 6 7 13 11 5 4 5 5 6 7 9 9 12 14 16 17
29 27 27 27 27 26 26 27 25 24 23 23 15 8 8 7 7 10 9 7 5 6 4 1 7 8 1 2 4 2 5 3 3 2 3 2 8 9 6 2 3 7 6 4 2 6 2 4 2 1 6 5 4 5 5 3 7 7 8 8 3 5 2 5 12 10 9 13 12 13 13 12 11 10 5 3 9 12 8 3 6 9 10 10 14 18 17
25 25 27 30 28 28 28 27 25 25 24 23 15 9 9 10 9 8 6 5 3 3 4 3 2 2 5 5 3 3 3 5 5 4 3 2 2 4 7 3 3 4 5 2 4 5 2 1 2 1 4 5 4 6 7 8 6 2 5 8 7 4 2 5 3 4 10 11 14 14 5 9 10 2 10 5 4 6 8 9 11 12 12 11 10 12 18
24 25 27 27 27 26 26 25 25 25 25 23 12 8 7 7 9 11 10 7 8 3 3 4 1 1 2 6 2 3 3 6 5 6 4 3 3 3 6 5 6 3 5 3 1 4 1 1 4 6 6 5 2 3 2 2 5 3 6 6 3 3 11 9 2 9 12 11 10 1 6 11 12 12 4 4 3 2 6 9 9 10 14 15 17 12 12
25 25 25 27 27 27 27 27 26 27 25 22 12 7 7 8 9 9 7 7 5 4 2 5 3 3 2 1 2 4 5 7 8 8 7 5 5 6 6 6 6 5 2 5 0 1 3 6 7 2 1 3 4 8 5 3 4 7 12 11 9 11 13 7 8 9 11 12 7 4 4 6 14 5 6 7 4 6 8 10 11 13 12 13 16 19 13
25 26 27 27 28 29 29 30 30 27 27 20 8 8 6 6 8 9 10 5 5 4 5 3 3 1 4 4 3 4 3 6 7 7 6 6 6 6 6 6 6 5 3 3 2 3 6 5 3 4 4 2 2 5 1 5 6 12 13 8 10 11 7 11 14 12 13 14 4 5 5 9 9 7 7 4 4 6 7 7 9 12 15 15 14 13 18
23 24 25 26 27 27 28 28 27 25 25 12 7 3 6 5 9 11 10 9 6 3 4 4 3 3 2 3 3 3 3 4 6 7 8 7 7 7 7 6 4 4 3 3 4 3 6 4 3 4 3 2 3 2 2 3 5 13 8 8 9 7 8 10 9 9 12 1 4 3 3 6 6 7 5 1 5 5 7 11 11 12 12 13 14 13 11
23 24 25 25 25 25 25 25 25 26 23 10 9 5 7 6 7 12 13 9 7 5 2 1 3 1 3 2 3 8 8 7 7 7 8 7 6 5 3 5 1 5 3 3 3 4 3 4 4 4 4 9 7 2 4 1 5 7 13 8 10 9 9 10 9 5 3 1 2 3 3 6 3 2 1 4 5 5 6 8 9 10 12 12 12 13 13
22 22 22 23 23 23 24 23 23 23 12 12 11 6 4 3 6 14 17 10 9 5 5 4 2 2 3 2 2 2 7 6 5 3 3 5 4 3 4 7 4 4 6 4 3 2 5 5 6 5 5 9 8 1 4 6 9 16 22 4 6 7 6 6 5 2 3 3 1 5 8 3 1 1 6 2 7 6 8 9 10 10 11 10 11 11 10
21 21 21 21 22 23 22 22 24 17 9 11 6 4 4 6 10 23 16 12 7 2 2 2 4 2 2 4 3 1 4 5 3 4 3 3 6 3 4 3 5 2 4 5 5 4 2 5 4 8 8 3 4 3 5 8 15 24 20 15 4 5 5 1 2 2 4 2 2 6 11 5 3 1 4 6 6 7 7 8 8 9 9 10 10 10 9
21 21 21 20 19 20 20 20 20 20 15 10 6 10 5 4 14 20 15 10 4 2 1 4 4 3 3 0 5 4 5 7 6 7 4 1 4 4 4 4 4 4 5 6 4 3 3 3 7 6 1 5 5 0 5 16 24 21 17 15 2 3 2 2 3 4 4 4 2 2 3 3 3 3 4 6 7 5 5 7 8 9 9 9 9 10 11
21 21 22 22 20 19 17 15 7 7 6 7 6 3 9 14 17 20 18 9 7 3 4 3 2 5 4 1 4 5 4 5 5 8 8 2 3 6 3 4 4 5 5 3 2 7 5 6 4 3 7 3 3 6 10 18 21 18 13 12 4 6 3 2 7 8 6 4 4 4 2 2 2 5 5 5 5 5 6 7 7 9 10 10 10 11 11
21 21 20 19 19 16 9 12 9 9 8 6 4 11 21 20 21 15 12 2 2 5 5 4 5 5 7 7 6 4 6 5 1 3 2 3 3 0 3 4 1 5 2 3 3 6 7 5 4 6 4 6 11 11 16 19 20 16 12 9 7 10 9 10 5 7 6 3 3 3 3 4 7 7 4 5 5 4 5 7 7 7 8 10 11 12 11
21 21 20 18 10 6 7 4 6 8 4 5 10 19 24 16 5 8 3 3 1 1 3 4 7 8 10 5 3 3 9 8 5 3 3 3 5 0 3 1 5 1 2 1 1 7 7 4 3 4 5 11 13 17 21 17 12 14 12 8 5 6 5 4 8 9 3 3 4 5 5 6 6 5 5 5 5 5 5 5 6 7 10 11 12 12 11
19 19 10 6 5 5 3 6 5 9 20 25 22 11 7 6 4 3 3 4 3 3 3 2 6 3 3 8 6 8 7 4 5 6 0 2 4 2 0 2 5 3 5 4 7 5 3 2 5 10 13 12 10 14 17 12 11 7 5 5 7 7 7 8 10 9 5 2 4 4 4 6 8 6 5 4 4 3 3 3 4 4 5 7 8 10 12
18 9 5 3 5 6 6 4 14 23 13 8 3 3 3 2 4 4 5 3 4 7 5 7 9 8 8 5 4 5 5 9 7 5 7 7 5 4 0 5 6 3 3 0 7 6 2 3 2 4 12 7 6 19 16 8 6 5 5 4 7 8 10 9 11 13 11 9 5 5 10 9 7 6 3 4 4 3 2 2 3 3 4 6 7 9 9
5 5 5 6 4 2 5 17 27 15 7 5 1 3 3 3 6 4 2 4 2 1 4 9 7 7 12 13 12 8 3 9 11 10 9 3 1 7 3 2 3 3 3 3 6 4 7 4 3 2 7 7 15 17 6 8 9 8 6 6 6 6 7 8 7 5 3 1 3 3 3 3 4 4 4 4 4 3 2 1 2 3 4 5 8 8 9
6 4 4 5 4 4 8 9 5 4 3 3 3 1 2 3 3 3 3 4 6 3 1 3 6 5 6 8 11 8 2 5 3 3 3 5 3 6 2 3 2 4 2 4 4 4 1 1 3 5 11 11 14 6 7 6 8 6 6 7 6 6 7 7 6 4 4 3 2 2 2 2 2 2 2 2 2 1 0 1 2 3 4 6 8 8 8
6 5 5 8 6 7 7 3 1 3 1 1 3 3 3 2 1 1 2 9 9 3 2 4 8 11 9 12 8 5 2 1 3 2 3 2 3 5 2 1 1 4 4 3 3 1 2 2 3 6 9 13 6 4 9 9 7 9 8 8 8 6 7 6 7 4 4 5 3 2 2 2 2 2 3 2 2 2 1 2 3 3 4 5 6 6 7
20 14 10 6 3 3 1 3 3 3 5 4 3 3 3 4 6 8 4 1 0 4 3 3 3 5 4 5 5 2 4 3 4 2 2 4 1 3 2 1 1 3 4 2 2 1 2 5 4 12 13 11 7 10 11 9 7 7 7 7 7 7 7 7 7 6 3 5 3 3 3 2 4 3 1 4 4 6 4 3 2 2 3 5 5 6 7
10 6 5 1 3 4 3 6 3 4 0 1 6 8 8 7 5 4 4 4 3 3 4 9 8 14 7 2 7 3 2 1 1 3 1 0 3 2 2 4 5 2 3 0 1 4 7 3 9 14 13 3 5 7 8 7 8 7 6 6 6 7 6 5 4 4 4 2 3 3 3 4 3 0 3 4 5 7 2 1 2 3 3 5 5 5 6
6 1 3 3 4 4 3 4 2 4 9 8 6 6 8 12 10 7 6 3 4 9 6 10 10 11 10 3 4 1 2 4 1 6 3 3 2 2 4 5 2 2 2 3 2 2 1 6 12 11 12 11 10 9 8 8 10 12 10 8 8 7 8 8 7 5 5 4 4 4 4 3 3 2 5 6 5 5 4 1 1 3 3 4 4 5 5
6 7 6 4 4 4 4 1 3 5 2 3 5 6 6 4 8 7 4 3 7 10 11 12 9 10 9 3 7 5 3 4 3 3 3 1 5 6 2 1 2 2 1 2 2 8 12 14 14 14 14 10 7 10 10 9 7 6 11 12 11 10 8 7 6 5 5 4 4 5 4 4 4 6 6 6 6 5 4 3 2 3 3 3 5 5 6
3 2 2 1 3 3 3 5 5 1 4 4 4 7 7 7 6 9 5 7 11 11 10 8 9 9 12 5 4 1 1 1 4 3 4 3 4 1 1 4 3 4 6 5 7 6 9 13 15 14 4 6 7 8 10 10 9 10 9 5 9 9 7 7 6 6 4 4 5 5 4 4 4 6 7 7 5 4 4 3 2 2 3 2 4 4 4
5 1 4 3 4 4 9 5 4 3 1 3 7 8 6 6 8 5 3 6 10 11 12 10 7 2 2 2 4 5 4 1 3 4 3 4 1 3 2 1 2 2 4 7 12 13 12 13 13 5 5 8 11 12 10 10 9 10 8 8 9 10 9 9 7 6 5 6 6 6 5 5 5 5 7 8 7 5 4 4 2 1 1 2 3 4 5
2 3 5 3 1 2 4 5 8 8 4 3 7 9 8 9 8 8 7 8 12 13 14 13 7 7 2 2 6 4 4 4 5 5 4 1 3 6 5 5 5 6 5 9 12 12 15 9 0 5 6 7 6 8 9 10 11 11 10 10 8 10 8 7 7 5 5 5 5 6 5 5 5 6 6 7 6 5 5 4 3 1 0 1 2 4 4
4 1 1 4 4 3 2 2 9 6 3 3 4 7 8 9 8 7 7 10 10 10 5 6 2 5 3 4 1 2 3 2 4 1 4 7 4 2 2 3 4 6 8 10 11 12 3 5 6 5 5 5 6 8 10 9 9 9 6 6 6 7 6 7 6 5 5 5 5 6 7 6 6 6 7 7 6 6 5 4 2 1 0 0 1 3 3
1 1 2 2 10 8 9 10 11 8 7 7 8 8 9 10 11 10 6 9 10 10 5 6 4 4 2 1 3 4 5 3 4 6 6 6 2 3 6 11 10 10 11 3 3 4 6 6 7 7 7 6 7 7 7 9 9 8 7 7 7 6 5 5 6 7 5 5 6 6 8 7 6 5 5 6 7 6 5 4 3 2 1 0 1 2 3
2 3 4 1 4 8 9 6 8 11 12 12 11 9 9 9 7 5 6 10 12 13 11 4 5 3 2 6 5 3 1 4 3 3 2 3 3 6 4 12 15 11 6 5 5 1 1 1 0 6 8 9 9 8 8 8 9 9 8 9 8 8 7 6 6 7 6 6 7 7 7 8 6 6 6 7 7 6 5 4 3 1 0 1 1 1 2
Wind_Direction
197 184 184 183 185 187 176 169 166 162 161 143 197 124 186 174 231 350 300 356 98 116 239 166 203 209 239 32 307 134 271 161 208 131 299 268 146 40 183 198 146 242 129 185 148 151 205 160 223 131 75 111 171 185 231 269 48 106 326 11 238 68 101 356 279 290 275 260 296 137 159 53 21 10 2 2 330 296 270 259 285 292 300 290 275 247 278
197 185 183 181 181 184 175 169 165 165 180 161 139 133 206 170 130 254 290 53 38 145 222 196 218 245 307 177 245 196 183 143 227 218 243 170 153 164 176 339 177 139 100 107 167 206 96 276 113 25 132 162 169 230 17 245 347 102 260 127 275 70 304 71 322 314 310 258 138 160 216 118 150 316 271 295 284 279 274 280 272 276 289 292 293 285 304
196 190 182 178 180 183 175 172 169 173 189 195 162 170 166 120 77 77 306 10 106 203 241 194 180 210 220 155 254 151 267 191 190 164 214 133 171 113 247 156 105 72 101 67 49 302 165 57 201 118 160 190 154 256 256 255 157 218 265 280 316 70 250 89 316 307 322 322 324 323 329 331 333 359 334 312 308 306 330 313 318 279 280 290 286 286 280
197 191 184 176 174 174 172 169 167 171 180 180 118 179 99 166 232 138 340 20 1 268 18 46 163 170 154 288 245 158 223 277 234 160 219 146 101 92 132 13 85 130 95 102 241 124 322 136 186 132 197 169 262 204 284 205 219 222 107 68 85 137 354 161 204 207 230 248 266 283 302 315 306 323 321 297 297 293 293 287 293 280 289 284 276 273 292
194 191 182 175 175 173 171 169 167 169 176 168 147 10 136 144 207 143 201 49 235 243 309 219 149 200 152 205 158 207 206 180 299 164 193 188 142 87 139 182 143 224 128 183 169 200 34 47 125 198 156 219 171 271 186 305 244 161 108 50 84 76 227 240 236 240 250 267 277 280 281 285 295 310 291 285 287 291 299 290 276 278 298 278 267 283 291
195 188 176 175 174 173 169 166 164 169 180 168 144 166 167 198 240 118 197 142 195 144 239 182 216 267 163 240 107 197 174 205 194 5 169 96 207 139 295 131 255 176 175 146 143 164 182 171 189 99 160 76 328 349 13 124 349 107 31 68 131 176 209 246 232 254 246 237 255 261 276 276 288 286 278 280 281 289 287 278 274 283 266 280 292 294 291
192 179 175 175 174 172 168 165 163 167 177 166 175 153 251 113 1 159 265 176 225 171 149 169 193 205 187 242 182 220 190 209 198 160 143 146 275 187 231 209 196 173 163 156 188 170 150 269 226 165 159 176 134 22 354 219 142 61 107 168 178 84 263 204 248 264 261 254 254 254 257 268 281 279 270 272 282 280 279 277 278 273 272 276 283 291 290
186 176 175 175 174 173 169 165 161 165 165 160 187 213 144 199 152 194 11 75 96 107 108 162 181 212 196 197 222 197 211 208 179 330 146 203 256 166 225 182 184 170 163 160 171 210 190 165 164 193 121 344 126 207 188 180 355 106 317 141 289 108 267 157 236 280 280 256 251 257 256 279 286 272 268 271 272 277 272 272 287 299 290 286 288 296 296
179 171 173 178 177 176 174 166 164 166 154 158 192 222 177 91 126 145 134 162 189 110 162 164 189 207 200 212 219 181 206 216 176 214 148 198 193 175 215 169 151 180 168 191 207 200 152 152 180 166 150 171 217 132 268 134 199 330 150 333 303 89 255 25 74 331 292 291 290 295 301 298 273 270 275 268 271 278 293 295 292 301 294 291 300 305 298
173 172 173 176 178 178 176 170 169 169 166 136 153 192 172 83 6 92 111 179 163 166 150 174 119 228 210 196 196 190 209 182 154 253 181 107 260 203 170 160 133 172 161 214 209 201 167 180 173 162 193 154 198 185 173 176 152 206 166 213 141 215 169 345 325 320 272 287 302 313 315 310 304 304 66 354 312 297 299 294 295 287 289 298 304 289 295
172 174 175 180 181 178 177 172 169 171 165 174 171 172 168 162 158 118 85 170 204 186 170 205 203 228 135 195 200 210 138 182 190 198 248 113 305 235 149 154 151 183 195 217 205 162 166 157 165 136 150 179 188 209 199 209 200 175 164 155 261 165 204 201 291 264 289 296 311 320 339 342 270 230 53 320 303 296 296 291 290 291 290 283 291 296 303
175 175 179 183 178 178 177 174 171 175 180 184 121 137 166 109 100 102 144 198 220 160 192 210 197 200 167 189 178 176 159 179 205 223 215 163 200 37 137 146 119 206 231 155 100 85 82 73 66 60 136 203 212 206 196 212 235 204 192 162 188 191 143 248 146 190 270 296 325 337 314 248 245 313 314 304 298 293 281 281 283 276 276 283 291 297 300
176 178 180 175 177 178 177 175 173 174 170 163 155 161 180 156 139 149 149 183 206 178 197 216 191 201 166 158 162 185 190 186 107 99 125 143 159 213 198 160 167 173 151 135 110 102 117 159 245 193 238 123 253 217 212 213 235 220 202 197 154 204 191 173 264 181 337 328 323 317 243 315 314 300 293 290 283 275 297 288 290 295 292 294 294 296 299
176 182 177 176 175 175 175 175 174 170 169 163 150 157 160 163 153 152 165 161 218 180 189 108 174 185 174 174 149 120 117 125 131 119 132 204 160 177 227 150 193 148 156 123 93 96 44 72 57 31 309 60 349 59 254 215 229 201 192 202 191 173 101 162 204 273 194 233 197 238 300 307 291 290 276 182 276 294 308 301 301 296 295 291 291 301 307
176 178 176 176 175 174 173 172 171 169 167 158 127 139 161 174 158 152 139 122 180 153 170 205 189 183 167 160 148 156 166 174 152 157 110 104 110 212 172 170 135 133 132 86 43 35 145 102 18 52 319 77 202 250 132 248 269 205 200 187 191 192 160 242 111 271 154 202 275 291 291 269 276 237 281 283 266 267 274 294 293 297 284 287 309 310 313
177 177 175 175 174 173 173 171 172 167 163 154 139 149 159 154 110 112 152 165 136 195 218 193 137 168 180 185 174 171 176 172 166 121 158 142 149 92 86 131 230 137 75 80 99 107 150 122 212 145 224 187 260 96 285 119 290 204 149 131 193 236 216 217 195 226 36 334 272 263 253 244 241 281 282 290 309 314 306 310 290 308 319 324 328 318 320
176 175 174 174 175 174 174 174 169 167 166 158 158 156 171 163 147 154 135 125 189 211 46 164 167 139 100 127 169 192 175 171 149 151 170 190 176 143 106 90 33 97 120 88 153 95 62 101 187 163 281 148 124 223 229 167 168 335 80 53 153 185 220 125 266 247 204 176 216 266 225 256 234 256 271 268 326 300 336 305 292 330 328 328 325 322 329
175 176 176 175 175 175 175 173 171 167 166 157 148 160 163 168 146 130 116 157 178 198 201 181 157 174 181 168 164 149 91 98 103 89 116 138 129 164 169 139 110 279 143 110 186 99 175 161 183 199 226 232 145 37 228 169 159 187 174 188 172 247 295 175 206 217 229 236 261 286 285 250 249 260 272 301 255 300 312 295 306 324 326 321 325 328 329
177 176 175 174 174 174 173 173 173 170 166 155 135 117 174 169 163 147 102 123 159 196 160 280 179 168 133 68 121 156 189 168 157 132 135 107 209 145 135 192 134 132 262 153 124 165 165 247 97 164 165 283 107 196 215 140 209 38 144 170 328 286 161 266 160 222 231 216 225 251 262 255 230 254 267 267 14 327 294 292 307 324 320 327 331 326 325
175 175 174 174 173 173 174 175 174 173 170 155 145 149 133 147 176 161 158 153 113 126 156 181 201 169 202 146 139 127 119 86 189 140 169 158 143 122 84 107 285 100 336 124 181 210 131 220 201 103 192 203 243 135 344 257 153 166 180 215 163 211 146 238 188 232 305 240 227 284 289 287 77 326 324 331 330 282 292 308 322 323 325 341 327 322 318
174 174 174 173 173 173 174 175 174 170 161 153 140 135 141 161 151 138 113 116 113 122 243 175 42 187 160 205 194 171 164 176 172 163 207 136 166 136 164 200 174 149 179 165 177 221 155 195 189 182 210 155 247 48 200 173 284 247 171 193 230 193 94 271 275 204 184 211 215 212 210 237 324 348 302 298 279 296 317 336 313 332 338 337 326 313 319
175 176 174 171 171 172 173 174 176 170 159 150 129 126 124 160 146 128 113 100 120 139 154 138 220 200 247 206 191 211 206 189 185 167 145 137 199 171 156 123 157 136 184 115 55 4 64 151 54 102 209 264 304 199 167 61 277 270 24 107 304 226 188 185 208 251 204 212 219 261 282 288 297 293 280 284 300 321 13 349 328 333 336 341 317 311 315
175 172 170 170 169 170 176 177 177 175 166 156 139 143 144 138 147 145 119 98 76 78 101 53 66 88 263 267 238 214 148 211 93 158 157 140 183 156 141 132 164 151 139 163 169 161 172 133 195 157 79 238 179 230 268 215 217 207 186 247 221 240 196 197 269 254 250 263 262 269 272 276 285 284 277 293 315 27 20 350 337 343 328 320 308 308 311
169 168 169 169 170 176 179 177 177 179 175 165 151 139 148 150 153 124 101 84 111 96 10 146 100 230 208 221 187 252 144 223 224 195 286 144 148 205 38 215 127 69 167 219 187 132 185 119 203 137 180 225 114 206 177 228 238 161 186 254 250 250 186 191 244 267 330 274 219 246 269 285 284 286 294 303 73 36 24 349 341 320 325 317 306 305 308
174 174 176 175 173 173 175 179 181 186 183 169 158 144 128 143 166 149 143 144 156 142 172 240 201 208 162 134 122 152 232 140 116 110 58 75 153 171 183 199 150 156 196 161 99 79 63 115 286 202 201 249 142 238 247 208 264 197 202 243 230 287 173 145 238 257 238 257 274 279 285 289 285 281 297 2 355 352 8 28 314 305 310 309 304 310 308
177 178 180 182 180 178 178 180 183 187 186 172 152 146 153 164 162 146 105 84 88 109 141 232 260 52 134 113 166 202 173 134 152 143 175 157 106 114 121 95 33 30 91 94 98 140 153 97 146 179 220 289 250 233 234 215 235 256 236 228 213 227 83 238 168 231 259 273 272 275 305 288 279 269 95 54 10 320 326 331 323 323 317 308 312 309 306
181 180 179 179 181 184 183 182 184 190 190 179 158 157 151 159 164 159 160 157 120 7 177 199 192 17 179 187 206 91 130 152 148 166 177 170 139 120 109 111 110 79 100 58 37 123 80 136 197 219 225 234 240 246 255 315 269 242 245 243 156 204 241 236 262 262 267 261 263 55 320 297 300 305 74 92 86 70 330 322 317 321 317 320 319 314 303
189 187 184 184 185 186 187 187 189 194 190 171 162 159 149 159 182 173 163 163 132 153 171 137 159 214 75 1 236 140 149 160 167 175 183 176 156 150 145 135 121 118 121 116 74 171 157 200 222 219 204 233 263 262 243 268 274 254 247 238 207 220 229 197 217 223 250 253 257 148 218 270 266 294 44 14 37 20 350 334 318 310 306 310 313 312 311
189 190 189 187 187 188 191 193 193 194 183 169 148 152 160 181 174 181 177 176 98 108 81 86 40 38 145 235 101 134 189 155 173 175 168 159 158 163 168 162 150 136 106 108 152 195 222 230 203 184 207 223 190 272 184 211 227 248 240 212 207 222 190 201 223 237 257 269 267 171 171 240 289 338 349 8 52 15 328 313 301 307 312 316 313 310 313
188 190 189 190 189 188 190 192 194 188 177 159 136 123 167 208 186 178 183 179 155 121 135 171 151 232 59 66 178 150 138 171 160 155 160 162 174 184 185 160 157 146 124 164 186 215 222 230 217 220 213 211 208 250 198 211 232 256 246 208 216 216 205 216 215 216 250 277 122 167 216 269 282 297 290 139 84 20 335 316 309 311 315 315 311 310 306
190 192 194 193 192 192 191 194 193 188 175 148 152 142 180 196 189 178 173 168 152 145 161 162 177 152 62 252 139 172 159 151 159 159 169 167 175 168 147 116 108 159 154 184 200 225 183 225 213 223 200 210 217 223 220 215 277 286 260 174 208 211 225 227 233 240 287 82 139 147 214 245 274 317 284 134 353 352 314 294 294 303 309 312 305 306 306
189 190 193 195 196 195 197 193 189 181 160 153 179 175 180 193 167 160 162 144 134 104 160 154 188 171 187 191 163 168 133 143 121 122 141 147 124 134 123 168 176 185 177 183 221 200 232 217 212 229 197 216 213 267 238 239 255 256 266 221 178 210 215 230 211 144 86 115 86 318 281 258 85 184 265 348 330 312 296 294 304 311 312 305 300 296 299
191 194 195 196 197 196 193 189 184 178 152 175 178 347 289 300 165 159 158 137 131 192 162 140 182 207 156 209 87 341 136 100 112 139 183 190 155 157 132 147 132 110 219 167 193 227 215 196 194 237 230 153 201 244 250 239 239 250 263 276 249 177 211 170 115 126 139 152 124 193 252 228 222 238 283 289 288 292 295 304 307 309 309 307 303 307 316
190 188 191 193 197 196 197 200 195 181 160 169 189 208 205 204 158 147 139 135 114 141 155 146 191 177 173 98 96 232 142 154 173 159 171 258 139 123 155 133 167 162 243 214 228 212 217 188 200 235 87 209 215 260 255 249 248 255 264 269 272 111 123 142 210 198 180 147 204 284 277 317 333 303 293 281 280 284 303 305 310 312 311 309 309 319 322
187 191 191 188 195 201 197 186 170 192 191 191 205 177 172 168 154 148 145 151 140 176 187 219 137 130 130 111 140 216 138 125 181 196 161 189 118 148 158 119 214 202 246 130 144 227 217 218 141 164 219 138 166 236 242 252 256 253 249 260 234 117 79 299 251 206 160 147 155 212 238 259 277 261 254 269 278 300 311 308 312 320 316 316 315 325 333
188 192 197 197 199 193 185 185 194 187 205 194 181 160 163 169 158 159 164 77 109 157 188 187 176 187 162 171 171 203 134 174 169 59 121 108 20 9 119 102 199 249 128 181 206 198 217 163 110 240 168 177 214 216 233 240 250 258 252 243 212 184 206 213 190 150 149 142 183 219 235 240 239 248 269 273 290 299 310 311 312 318 311 315 326 331 331
189 192 190 189 173 167 193 196 171 203 215 137 140 146 151 145 129 144 155 150 220 164 151 176 194 192 176 154 108 180 150 169 187 118 164 144 174 3 91 93 203 197 53 323 203 208 232 152 176 226 208 213 225 227 236 241 245 252 257 241 208 187 155 98 130 128 138 229 231 237 225 224 238 243 250 270 291 306 310 312 326 332 332 330 330 333 332
189 188 186 159 138 169 159 195 196 142 120 126 129 126 136 130 163 151 160 180 225 185 211 200 221 147 91 121 167 180 133 179 133 135 177 166 108 287 113 120 224 174 213 231 239 167 104 168 210 222 244 232 235 248 246 235 238 242 236 195 183 181 159 134 137 134 145 265 272 228 226 226 230 231 200 251 276 283 293 300 307 312 316 321 324 325 328
187 177 164 146 165 183 187 194 144 133 123 127 63 113 167 175 131 187 180 162 163 210 174 200 198 162 147 133 124 159 145 162 147 157 160 222 125 267 223 153 261 175 269 326 274 134 132 263 277 241 256 234 218 245 243 216 205 193 186 183 161 159 145 160 171 178 193 216 204 183 172 184 195 210 214 256 270 271 298 306 300 318 322 326 323 329 328
105 153 158 164 186 152 108 135 125 116 130 137 208 123 156 209 152 202 172 168 226 242 178 219 180 167 167 161 142 176 166 144 163 176 173 203 267 157 241 108 243 122 218 210 237 123 127 209 263 150 264 226 236 244 175 182 196 203 164 167 152 148 163 165 184 211 203 221 106 128 132 159 177 191 217 245 266 260 292 308 315 328 339 334 333 336 337
161 116 150 148 136 139 131 123 86 84 108 140 138 146 153 195 179 176 154 184 187 233 164 135 126 135 170 149 151 153 181 77 5 57 116 173 228 92 101 193 233 92 233 217 262 91 143 193 239 199 240 241 243 210 160 183 194 185 171 160 164 158 163 168 180 181 171 182 172 175 171 162 171 190 202 233 185 165 279 326 347 346 343 338 340 337 337
179 157 124 109 113 113 117 89 145 130 84 173 132 206 183 185 106 55 216 181 199 143 269 154 161 153 161 154 155 117 113 137 121 129 126 186 223 123 207 236 306 145 216 226 110 81 130 219 249 253 237 240 242 146 175 192 200 182 186 171 171 168 166 172 176 191 173 176 178 171 187 192 203 203 213 183 134 113 86 43 4 349 344 330 337 328 339
106 108 109 108 128 171 164 142 219 127 149 182 127 180 197 175 215 166 203 169 224 100 231 62 73 83 56 90 40 29 142 180 129 197 112 176 86 74 125 217 144 227 216 62 88 156 196 223 233 248 250 238 182 187 199 195 182 171 169 170 170 178 171 178 176 183 171 166 179 196 202 184 194 209 198 123 104 81 55 55 14 349 337 344 337 338 339
124 118 112 190 127 231 152 194 210 84 266 203 156 183 186 175 220 138 124 179 124 109 193 126 166 129 166 191 132 147 81 7 127 79 22 215 101 162 160 195 208 236 60 52 101 183 225 231 232 245 252 225 180 202 191 172 165 157 165 176 168 172 170 167 162 161 186 164 164 181 156 151 169 286 99 106 112 110 89 44 21 11 358 354 340 340 337
131 159 127 161 160 217 154 223 193 157 192 193 171 187 197 193 175 141 158 205 104 164 159 137 156 150 146 169 58 336 140 170 208 115 211 134 81 229 139 221 183 92 144 206 267 299 342 259 250 243 247 233 209 195 191 185 177 178 175 158 177 180 176 176 184 170 184 176 177 156 171 178 153 150 121 112 114 120 113 89 17 24 12 2 349 338 331
159 172 159 152 176 212 168 213 163 165 247 173 192 178 178 149 147 160 191 127 126 143 148 162 154 145 151 216 133 184 120 134 121 190 149 112 140 216 193 57 85 140 246 148 180 220 225 238 245 245 235 222 179 184 186 183 165 147 150 184 189 179 184 175 181 175 178 168 170 154 178 159 158 144 139 131 115 103 96 83 60 56 12 14 351 340 324
143 162 127 161 166 206 122 176 205 184 163 138 140 140 156 160 155 146 167 150 156 160 147 145 144 162 154 173 95 5 95 162 142 204 101 136 176 159 116 131 207 185 177 214 216 232 241 245 245 248 198 143 164 161 168 172 175 181 190 162 161 175 172 172 176 177 182 159 161 156 163 156 158 148 134 117 113 114 117 109 75 60 39 10 338 323 320
177 186 135 167 200 171 172 197 133 79 345 134 162 155 158 126 109 143 196 153 144 140 140 134 121 87 36 298 89 177 154 143 100 269 145 175 93 82 217 166 203 216 189 190 220 227 234 239 243 212 178 168 158 162 171 176 181 181 174 168 167 166 172 172 176 179 170 163 164 164 161 155 150 145 140 139 134 134 118 121 95 91 22 347 336 326 330
153 154 162 152 132 109 169 142 135 167 183 167 163 155 147 152 167 161 161 137 148 165 163 150 164 114 191 166 138 164 201 212 133 213 99 118 155 194 167 199 185 222 229 202 225 228 239 252 357 124 135 138 163 167 175 175 172 173 174 172 170 167 162 165 174 173 164 156 159 155 165 165 151 141 140 135 136 137 125 122 112 130 356 284 322 320 329
148 204 113 108 80 356 288 131 157 174 114 118 149 172 174 171 160 176 167 147 159 126 85 51 51 98 193 122 158 203 197 200 167 174 120 191 181 199 139 213 217 205 216 215 219 232 206 101 141 119 150 157 160 167 158 164 163 163 160 151 147 146 156 156 168 165 164 160 163 163 162 151 154 151 151 157 144 129 130 140 134 122 121 350 333 329 324
264 154 222 220 167 175 141 165 183 157 163 176 175 182 177 189 174 182 192 141 138 135 133 161 169 125 158 96 155 160 221 136 101 205 171 192 160 136 197 216 217 219 230 249 245 197 172 184 159 155 153 170 169 162 158 155 154 153 147 144 144 141 146 150 154 158 160 160 160 153 151 161 160 142 132 130 139 146 155 154 149 168 181 48 12 326 320
143 130 212 190 84 145 163 148 174 184 181 184 183 188 169 187 170 149 159 145 148 160 182 167 123 140 151 192 200 148 60 68 186 142 154 241 161 165 206 212 225 225 189 174 222 217 85 63 118 152 162 158 159 154 145 144 140 141 145 148 147 146 155 158 155 152 153 151 152 148 139 137 135 134 137 148 152 164 177 189 149 142 144 132 342 316 316